Borger, TX

7:00 PM CDT on September 23, 2017 (GMT -0500)
Hutchinson County

Weather History for KBGD - January, 2014

Change the Weather History Date:

Sunday, January 19, 2014

  Actual Average Record
Temperature  
Mean Temperature 53 °F 39 °F  
Max Temperature 72 °F 52 °F 76 °F (1986)
Min Temperature 33 °F 26 °F -3 °F (1984)
Degree Days  
Heating Degree Days 12 26  
Month to date heating degree days 460 512  
Since 1 July heating degree days 2017 2049  
Cooling Degree Days 0 0  
Month to date cooling degree days 0 0  
Year to date cooling degree days 0 0  
Growing Degree Days 2 (Base 50)    
Moisture  
Dew Point 13 °F    
Average Humidity 25    
Maximum Humidity 41    
Minimum Humidity 9    
Precipitation  
Precipitation 0.00 in 0.02 in 1.19 in (1990)
Month to date precipitation 0.01 0.31  
Year to date precipitation 0.01 0.31  
Snow  
Snow 0.00 in - 4.50 in (1993)
Month to date snowfall 1.0  
Since 1 July snowfall 8.2  
Snow Depth 0.00 in    
Sea Level Pressure  
Sea Level Pressure 30.04 in    
Wind  
Wind Speed 12 mph (SW)    
Max Wind Speed 33 mph    
Max Gust Speed 40 mph    
Visibility 10 miles    
Events      
T = Trace of Precipitation, MM = Missing Value Source: NWS Daily Summary

Daily Weather History Graph

Daily Weather History Graph

Search for Another Location

Airport or City:

Trip Planner

Search our weather history database for the weather conditions in past years. The results will help you decide how hot, cold, wet, or windy it might be!

Date:

Astronomy

Jan. 19, 2014 Rise Set
Actual Time 7:53 AM CST 5:59 PM CST
Civil Twilight 7:25 AM CST 6:27 PM CST
Nautical Twilight 6:54 AM CST 6:58 PM CST
Astronomical Twilight 6:24 AM CST 7:28 PM CST
Moon 9:30 PM CST (1/19) 9:32 AM CST (1/19)
Length of Visible Light 11h 01m
Length of Day
10h 06m
Waning Gibbous, 89% of the Moon is Illuminated
Jan 19
Waning Gibbous
Jan 23
Last Quarter
Jan 30
New
Feb 6
First Quarter
Feb 14
Full

Hourly Weather History & Observations

Time (CST) Temp. Windchill Dew Point Humidity Pressure Visibility Wind Dir Wind Speed Gust Speed Precip Events Conditions
12:51 AM 37.0 °F 31.0 °F 12.9 °F 37% 30.22 in 10.0 mi SW 8.1 mph - N/A   Clear
1:51 AM 37.0 °F 31.6 °F 12.9 °F 37% 30.21 in 10.0 mi SW 6.9 mph - N/A   Clear
2:51 AM 37.0 °F 32.4 °F 12.9 °F 37% 30.21 in 10.0 mi SSW 5.8 mph - N/A   Clear
3:51 AM 37.0 °F 31.6 °F 12.9 °F 37% 30.19 in 10.0 mi SSW 6.9 mph - N/A   Clear
4:51 AM 37.9 °F 29.6 °F 12.9 °F 36% 30.18 in 10.0 mi WSW 13.8 mph - N/A   Clear
5:51 AM 34.0 °F 28.0 °F 12.0 °F 40% 30.18 in 10.0 mi WSW 6.9 mph - N/A   Clear
6:51 AM 37.0 °F 29.8 °F 12.9 °F 37% 30.16 in 10.0 mi WSW 10.4 mph - N/A   Clear
7:51 AM 37.9 °F 33.5 °F 12.9 °F 36% 30.16 in 10.0 mi WSW 5.8 mph - N/A   Clear
8:51 AM 43.0 °F 36.0 °F 14.0 °F 31% 30.14 in 10.0 mi WSW 13.8 mph - N/A   Clear
9:51 AM 50.0 °F - 14.0 °F 24% 30.12 in 10.0 mi WSW 17.3 mph 27.6 mph N/A   Clear
10:51 AM 55.9 °F - 15.1 °F 20% 30.10 in 10.0 mi WSW 19.6 mph 28.8 mph N/A   Clear
11:51 AM 64.0 °F - 14.0 °F 14% 30.06 in 10.0 mi WSW 25.3 mph 38.0 mph N/A   Clear
12:51 PM 68.0 °F - 12.0 °F 11% 29.99 in 10.0 mi WSW 28.8 mph 40.3 mph N/A   Clear
1:51 PM 70.0 °F - 12.0 °F 11% 29.94 in 10.0 mi WSW 21.9 mph 38.0 mph N/A   Clear
2:51 PM 71.1 °F - 12.0 °F 10% 29.91 in 10.0 mi WSW 21.9 mph 28.8 mph N/A   Clear
3:51 PM 71.1 °F - 10.0 °F 9% 29.89 in 10.0 mi West 21.9 mph 29.9 mph N/A   Clear
4:51 PM 69.1 °F - 10.0 °F 10% 29.88 in 10.0 mi WSW 12.7 mph 25.3 mph N/A   Clear
5:51 PM 64.9 °F - 10.9 °F 12% 29.91 in 10.0 mi WSW 5.8 mph - N/A   Clear
6:51 PM 59.0 °F - 12.0 °F 16% 29.92 in 10.0 mi South 6.9 mph - N/A   Clear
7:51 PM 55.0 °F - 12.0 °F 18% 29.92 in 10.0 mi SSE 4.6 mph - N/A   Clear
8:51 PM 55.9 °F - 12.9 °F 18% 29.90 in 10.0 mi SW 5.8 mph - N/A   Clear
9:51 PM 50.0 °F - 12.9 °F 23% 29.90 in 10.0 mi WSW 5.8 mph - N/A   Clear
10:51 PM 48.0 °F - 12.9 °F 24% 29.89 in 10.0 mi WSW 8.1 mph - N/A   Clear
11:51 PM 43.0 °F 36.8 °F 12.9 °F 30% 29.87 in 10.0 mi WSW 11.5 mph - N/A   Clear